Location: Piacenza
(45.0170°N, 9.6670°E)
Time: 10:21:53
(UTC+02:00)

ISS - Visible Passes

Search period start: 08 May 2021 00:00
Search period end: 18 May 2021 00:00
Orbit: 418 x 421 km, 51.6° (Epoch: 08 May)

Date Brightness Start Highest point End Pass type
(mag) Time Alt. Az. Time Alt. Az. Time Alt. Az.
08 May -2.2 02:49:24 36° N 02:49:24 36° N 02:52:02 10° NE visible
08 May -1.6 04:23:19 10° WNW 04:26:12 25° N 04:29:06 10° ENE visible
09 May -1.2 02:03:26 20° NE 02:03:26 20° NE 02:04:38 10° NE visible
09 May -1.6 03:36:22 14° NW 03:38:37 26° N 03:41:31 10° NE visible
09 May -2.1 05:12:53 10° NW 05:16:03 35° NNE 05:19:12 10° E visible
10 May -1.9 02:50:22 26° NNW 02:51:01 28° N 02:54:00 10° NE visible
10 May -1.8 04:25:27 10° NW 04:28:29 29° NNE 04:31:30 10° ENE visible
11 May -1.6 02:04:21 27° NNE 02:04:21 27° NNE 02:06:33 10° NE visible
11 May -1.6 03:37:58 10° NW 03:40:53 26° N 03:43:50 10° ENE visible
11 May -3.2 05:14:47 10° WNW 05:18:09 63° NNE 05:21:30 10° ESE visible
12 May -1.0 01:18:16 16° NE 01:18:16 16° NE 01:19:07 10° NE visible
12 May -1.5 02:51:12 15° NW 02:53:18 25° N 02:56:11 10° ENE visible
12 May -2.6 04:27:23 10° NW 04:30:39 45° NNE 04:33:55 10° E visible
13 May -1.6 02:05:02 24° NNW 02:05:42 26° N 02:08:36 10° NE visible
13 May -2.1 03:39:57 10° NW 03:43:07 35° NNE 03:46:16 10° E visible
13 May -3.6 05:16:45 10° WNW 05:20:04 55° SW 05:23:23 10° SE visible
14 May -1.6 01:18:38 26° N 01:18:38 26° N 01:21:04 10° NE visible
14 May -1.7 02:52:31 10° NW 02:55:33 29° NNE 02:58:35 10° ENE visible
14 May -3.8 04:29:16 10° WNW 04:32:40 87° SSW 04:36:03 10° ESE visible
14 May -1.7 21:16:35 10° SE 21:17:14 10° SE 21:17:54 10° ESE visible
14 May -3.9 22:50:08 10° SW 22:53:29 70° SSE 22:55:41 20° ENE visible
15 May -1.9 00:27:26 10° W 00:30:31 32° NNW 00:33:36 10° NE visible
15 May -1.5 02:05:01 10° NW 02:07:58 26° N 02:10:54 10° ENE visible
15 May -3.3 03:41:51 10° WNW 03:45:13 63° NNE 03:48:34 10° ESE visible
15 May -3.5 22:02:54 10° SW 22:06:07 43° SE 22:09:20 10° ENE visible
15 May -2.3 23:39:46 10° W 23:42:58 39° NNW 23:46:10 10° NE visible
16 May -1.4 01:17:28 10° WNW 01:20:22 25° N 01:23:15 10° ENE visible
16 May -2.7 02:54:26 10° NW 02:57:43 45° NNE 03:00:59 10° E visible
16 May -3.1 04:31:23 10° WNW 04:34:28 34° SW 04:37:33 10° SSE visible
16 May -2.8 21:15:53 10° SSW 21:18:47 27° SE 21:21:41 10° E visible
16 May -2.9 22:52:08 10° WSW 22:55:26 52° NNW 22:58:45 10° NE visible
17 May -1.5 00:29:51 10° WNW 00:32:45 26° N 00:35:39 10° NE visible
17 May -2.1 02:07:01 10° NW 02:10:10 35° NNE 02:13:19 10° E visible
17 May -3.8 03:43:48 10° WNW 03:47:06 55° SW 03:50:25 10° SE visible
17 May -3.6 22:04:36 10° WSW 22:07:58 76° NNW 22:11:20 10° ENE visible
17 May -1.6 23:42:10 10° WNW 23:45:09 28° N 23:48:07 10° NE visible
